| time (UTC) | temp F | wind direction | speed MPH | gust MPH | rain 1hr in | rain 24hr in | rain mn in | humidity % | barometer mb |
| 20260831121558 | 65 | 30 | 1.0 | 3.0 | 0.01 | 0.15 | 0.11 | 99 | 1018.8 |
| 20260831114555 | 65 | 169 | 0.0 | 2.0 | 0.02 | 0.15 | 0.11 | 99 | 1018.5 |
| 20260831113056 | 65 | 171 | 0.0 | 3.0 | 0.02 | 0.15 | 0.11 | 99 | 1018.6 |
| 20260831111610 | 65 | 171 | 0.0 | 0.0 | 0.02 | 0.14 | 0.10 | 99 | 1018.7 |
| 20260831110054 | 65 | 171 | 0.0 | 2.0 | 0.01 | 0.13 | 0.09 | 99 | 1018.7 |
| 20260831104553 | 65 | 174 | 0.0 | 3.0 | 0.01 | 0.13 | 0.09 | 99 | 1018.6 |
| 20260831103102 | 66 | 178 | 0.0 | 4.0 | 0.01 | 0.13 | 0.09 | 99 | 1018.7 |
| 20260831101556 | 66 | 186 | 1.0 | 3.0 | 0.00 | 0.12 | 0.08 | 99 | 1018.7 |
| 20260831100051 | 66 | 187 | 0.0 | 0.0 | 0.00 | 0.12 | 0.08 | 99 | 1018.8 |
| 20260831094550 | 66 | 187 | 0.0 | 1.0 | 0.00 | 0.12 | 0.08 | 99 | 1018.7 |
| 20260831093049 | 66 | 188 | 0.0 | 0.0 | 0.00 | 0.12 | 0.08 | 99 | 1018.6 |
| 20260831091559 | 66 | 188 | 0.0 | 2.0 | 0.00 | 0.12 | 0.08 | 99 | 1018.6 |
| 20260831090047 | 66 | 189 | 0.0 | 1.0 | 0.00 | 0.12 | 0.08 | 99 | 1018.6 |
| 20260831084545 | 66 | 189 | 0.0 | 3.0 | 0.00 | 0.12 | 0.08 | 99 | 1018.9 |
| 20260831083046 | 66 | 195 | 0.0 | 1.0 | 0.01 | 0.12 | 0.08 | 99 | 1019.0 |
| 20260831081544 | 66 | 195 | 0.0 | 1.0 | 0.02 | 0.12 | 0.08 | 99 | 1019.2 |
| 20260831080100 | 66 | 195 | 0.0 | 0.0 | 0.02 | 0.12 | 0.08 | 99 | 1019.3 |
| 20260831074541 | 66 | 195 | 0.0 | 0.0 | 0.03 | 0.12 | 0.08 | 99 | 1019.2 |
| 20260831073101 | 66 | 195 | 0.0 | 1.0 | 0.05 | 0.11 | 0.07 | 99 | 1019.4 |
| 20260831071550 | 66 | 195 | 0.0 | 2.0 | 0.04 | 0.10 | 0.06 | 99 | 1019.5 |
| 20260831070039 | 66 | 196 | 0.0 | 1.0 | 0.05 | 0.10 | 0.06 | 99 | 1019.5 |
| 20260831064541 | 66 | 196 | 0.0 | 1.0 | 0.04 | 0.09 | 0.05 | 99 | 1019.5 |
| 20260831063042 | 66 | 196 | 0.0 | 1.0 | 0.01 | 0.06 | 0.02 | 99 | 1019.8 |
| 20260831061535 | 66 | 196 | 0.0 | 1.0 | 0.01 | 0.06 | 0.02 | 99 | 1019.7 |
| 20260831060035 | 66 | 196 | 0.0 | 0.0 | 0.01 | 0.05 | 0.01 | 99 | 1019.8 |
| 20260831054533 | 66 | 196 | 0.0 | 0.0 | 0.01 | 0.05 | 0.01 | 99 | 1020.0 |
| 20260831053032 | 66 | 196 | 0.0 | 0.0 | 0.01 | 0.05 | 0.01 | 99 | 1019.8 |
| 20260831051536 | 66 | 196 | 0.0 | 0.0 | 0.01 | 0.05 | 0.01 | 99 | 1019.8 |
| 20260831050030 | 66 | 196 | 0.0 | 0.0 | 0.00 | 0.04 | 0.00 | 99 | 1020.0 |
| 20260831044529 | 66 | 196 | 0.0 | 0.0 | 0.00 | 0.04 | 0.00 | 99 | 1019.8 |
| 20260831043028 | 66 | 196 | 0.0 | 0.0 | 0.00 | 0.04 | 0.00 | 99 | 1019.8 |
| 20260831041528 | 66 | 196 | 0.0 | 0.0 | 0.00 | 0.04 | 0.00 | 98 | 1019.8 |
| 20260831040030 | 66 | 196 | 0.0 | 0.0 | 0.00 | 0.04 | 0.00 | 98 | 1019.9 |
| 20260831034528 | 66 | 196 | 0.0 | 0.0 | 0.00 | 0.04 | 0.04 | 98 | 1019.9 |
| 20260831033034 | 66 | 196 | 0.0 | 0.0 | 0.00 | 0.04 | 0.04 | 98 | 1020.0 |
| 20260831031523 | 65 | 196 | 0.0 | 1.0 | 0.00 | 0.04 | 0.04 | 98 | 1019.9 |
| 20260831030023 | 65 | 196 | 0.0 | 1.0 | 0.00 | 0.04 | 0.04 | 98 | 1020.1 |
| 20260831024528 | 65 | 196 | 0.0 | 2.0 | 0.00 | 0.04 | 0.04 | 98 | 1020.1 |
| 20260831023021 | 65 | 196 | 0.0 | 0.0 | 0.00 | 0.04 | 0.04 | 98 | 1020.2 |
| 20260831021540 | 64 | 197 | 0.0 | 1.0 | 0.00 | 0.04 | 0.04 | 98 | 1020.0 |
| 20260831020021 | 64 | 197 | 0.0 | 3.0 | 0.00 | 0.04 | 0.04 | 98 | 1020.2 |
| 20260831014520 | 64 | 198 | 0.0 | 0.0 | 0.00 | 0.04 | 0.04 | 98 | 1020.3 |
| 20260831013020 | 64 | 198 | 0.0 | 0.0 | 0.00 | 0.04 | 0.04 | 97 | 1020.2 |
| 20260831011536 | 65 | 198 | 0.0 | 2.0 | 0.00 | 0.04 | 0.04 | 97 | 1020.1 |
| 20260831010020 | 65 | 196 | 0.0 | 0.0 | 0.00 | 0.04 | 0.04 | 97 | 1020.2 |
| 20260831004520 | 65 | 196 | 0.0 | 0.0 | 0.00 | 0.04 | 0.04 | 97 | 1020.0 |
| 20260831003018 | 65 | 196 | 0.0 | 0.0 | 0.00 | 0.04 | 0.04 | 97 | 1019.7 |
| 20260831001533 | 65 | 196 | 0.0 | 0.0 | 0.00 | 0.04 | 0.04 | 97 | 1019.6 |
| 20260831000017 | 65 | 196 | 0.0 | 0.0 | 0.00 | 0.04 | 0.04 | 97 | 1019.4 |
| 20260830234523 | 65 | 196 | 0.0 | 0.0 | 0.00 | 0.04 | 0.04 | 96 | 1019.6 |
| 20260830233015 | 65 | 200 | 0.0 | 3.0 | 0.00 | 0.04 | 0.04 | 96 | 1019.4 |
| 20260830231515 | 65 | 251 | 0.0 | 0.0 | 0.00 | 0.04 | 0.04 | 95 | 1019.5 |
| 20260830230015 | 65 | 256 | 0.0 | 0.0 | 0.00 | 0.04 | 0.04 | 94 | 1019.5 |
| 20260830224514 | 66 | 256 | 0.0 | 0.0 | 0.00 | 0.04 | 0.04 | 94 | 1019.6 |
| 20260830223019 | 66 | 256 | 0.0 | 2.0 | 0.00 | 0.04 | 0.04 | 93 | 1019.6 |
| 20260830221513 | 66 | 256 | 0.0 | 1.0 | 0.00 | 0.04 | 0.04 | 93 | 1019.6 |
| 20260830220113 | 66 | 257 | 0.0 | 1.0 | 0.00 | 0.04 | 0.04 | 93 | 1019.6 |
| 20260830214513 | 66 | 252 | 0.0 | 1.0 | 0.00 | 0.04 | 0.04 | 93 | 1019.5 |
| 20260830213011 | 66 | 252 | 0.0 | 1.0 | 0.00 | 0.04 | 0.04 | 92 | 1019.4 |
| 20260830211511 | 66 | 254 | 0.0 | 1.0 | 0.00 | 0.04 | 0.04 | 92 | 1019.5 |
| 20260830210015 | 66 | 250 | 0.0 | 2.0 | 0.00 | 0.04 | 0.04 | 93 | 1019.5 |
| 20260830204526 | 66 | 242 | 0.0 | 3.0 | 0.00 | 0.04 | 0.04 | 94 | 1019.5 |
| 20260830203009 | 66 | 300 | 0.0 | 1.0 | 0.01 | 0.04 | 0.04 | 94 | 1019.5 |
| 20260830201514 | 65 | 300 | 0.0 | 1.0 | 0.01 | 0.04 | 0.04 | 93 | 1019.7 |
| 20260830200008 | 65 | 242 | 0.0 | 5.0 | 0.01 | 0.04 | 0.04 | 93 | 1019.8 |
| 20260830194508 | 66 | 5 | 0.0 | 3.0 | 0.01 | 0.04 | 0.04 | 94 | 1020.0 |
| 20260830193008 | 67 | 213 | 0.0 | 1.0 | 0.00 | 0.03 | 0.03 | 94 | 1020.0 |
| 20260830191507 | 67 | 213 | 0.0 | 1.0 | 0.00 | 0.03 | 0.03 | 93 | 1019.9 |
| 20260830190007 | 67 | 110 | 0.0 | 2.0 | 0.00 | 0.03 | 0.03 | 93 | 1020.0 |
| 20260830184507 | 67 | 295 | 0.0 | 6.0 | 0.00 | 0.03 | 0.03 | 93 | 1020.3 |
| 20260830183006 | 67 | 235 | 1.0 | 5.0 | 0.00 | 0.03 | 0.03 | 95 | 1020.2 |
| 20260830181505 | 68 | 235 | 2.0 | 9.0 | 0.00 | 0.03 | 0.03 | 96 | 1020.4 |
| 20260830174505 | 68 | 307 | 0.0 | 0.0 | 0.00 | 0.03 | 0.03 | 96 | 1020.4 |
| 20260830173100 | 68 | 307 | 0.0 | 0.0 | 0.00 | 0.03 | 0.03 | 96 | 1020.4 |
| 20260830171611 | 68 | 306 | 0.0 | 0.0 | 0.00 | 0.03 | 0.03 | 96 | 1020.4 |
| 20260830170059 | 67 | 306 | 0.0 | 2.0 | 0.00 | 0.03 | 0.03 | 96 | 1020.2 |
| 20260830164601 | 67 | 306 | 0.0 | 0.0 | 0.00 | 0.03 | 0.03 | 97 | 1020.1 |
| 20260830163101 | 67 | 309 | 0.0 | 0.0 | 0.00 | 0.03 | 0.03 | 97 | 1020.3 |
| 20260830161608 | 67 | 309 | 0.0 | 0.0 | 0.01 | 0.03 | 0.03 | 96 | 1020.3 |
| 20260830160055 | 66 | 313 | 0.0 | 1.0 | 0.03 | 0.03 | 0.03 | 96 | 1020.5 |
| 20260830154554 | 66 | 313 | 0.0 | 2.0 | 0.03 | 0.03 | 0.03 | 96 | 1020.7 |
| 20260830153052 | 66 | 319 | 0.0 | 1.0 | 0.03 | 0.03 | 0.03 | 95 | 1020.8 |
| 20260830151557 | 66 | 329 | 0.0 | 2.0 | 0.02 | 0.02 | 0.02 | 94 | 1020.9 |
| 20260830150049 | 67 | 320 | 0.0 | 6.0 | 0.00 | 0.00 | 0.00 | 94 | 1020.6 |
| 20260830144548 | 67 | 316 | 0.0 | 5.0 | 0.00 | 0.00 | 0.00 | 94 | 1020.5 |
| 20260830143046 | 66 | 205 | 0.0 | 0.0 | 0.00 | 0.00 | 0.00 | 94 | 1020.1 |
| 20260830141546 | 66 | 205 | 0.0 | 0.0 | 0.00 | 0.00 | 0.00 | 93 | 1020.0 |
| 20260830134543 | 65 | 205 | 0.0 | 1.0 | 0.00 | 0.00 | 0.00 | 92 | 1019.6 |
| 20260830133046 | 65 | 205 | 0.0 | 0.0 | 0.00 | 0.00 | 0.00 | 92 | 1019.7 |
| 20260830131542 | 65 | 205 | 0.0 | 1.0 | 0.00 | 0.00 | 0.00 | 92 | 1019.7 |
| 20260830130051 | 65 | 205 | 0.0 | 1.0 | 0.00 | 0.00 | 0.00 | 92 | 1019.4 |
| 20260830124543 | 64 | 205 | 0.0 | 1.0 | 0.00 | 0.00 | 0.00 | 91 | 1019.4 |
| 20260830123038 | 65 | 205 | 0.0 | 0.0 | 0.00 | 0.00 | 0.00 | 91 | 1019.8 |